Theta_e
315 313 315 316 319 320 321 320 321 321 323 323 322 320 321 323 320 320 315 313 311 313 316 314 316 326 317 316 317 318 317 319 319 320 319 320 318 319 319 320 321 322 327 326 333
315 314 314 316 317 319 321 321 320 316 323 323 321 317 319 320 322 322 319 312 310 310 317 313 313 314 315 316 316 316 317 318 318 318 317 318 319 319 317 318 320 327 329 330 332
316 315 313 315 315 317 319 322 319 315 317 321 321 316 315 319 319 321 323 318 313 311 309 313 314 314 314 315 316 315 317 317 319 318 320 319 318 318 316 315 318 330 332 332 332
316 315 314 314 315 316 318 321 320 319 316 319 319 318 314 313 320 322 324 323 316 313 311 310 314 315 314 314 316 316 316 317 318 317 319 317 318 317 316 317 318 318 320 329 328
317 315 314 313 315 316 318 319 320 320 320 317 316 316 315 314 317 315 322 324 319 321 312 310 314 314 314 314 315 315 316 317 316 317 318 319 317 317 317 318 318 318 320 322 323
317 315 314 314 315 315 316 318 319 319 318 317 315 313 314 312 312 314 316 319 322 320 317 310 314 314 315 314 314 316 315 315 315 316 316 316 315 317 317 316 318 320 320 321 323
316 315 314 314 315 315 315 316 317 317 316 313 311 311 313 313 311 310 316 316 312 313 312 316 312 314 314 313 315 315 313 313 314 315 314 316 315 314 317 317 316 321 321 322 324
316 315 314 314 314 315 315 316 316 316 311 309 309 311 310 311 311 310 310 310 312 310 310 310 312 313 313 314 314 313 311 313 313 313 313 314 315 314 315 317 316 316 318 322 325
315 316 314 313 314 315 315 315 315 312 309 309 310 310 310 309 310 311 310 310 311 311 311 311 313 312 313 311 311 311 311 312 313 312 312 313 313 312 315 315 315 315 314 314 316
314 316 315 314 313 315 315 315 312 310 310 309 309 310 310 309 309 309 309 312 312 312 312 312 312 311 310 310 312 310 312 312 311 311 312 311 312 311 312 313 313 313 314 314 314
314 315 315 314 312 314 315 312 311 312 311 309 311 308 309 309 308 308 309 312 311 312 310 312 311 312 311 309 311 311 311 311 311 311 312 310 311 310 312 312 312 313 314 314 314
313 314 315 313 312 314 314 311 310 310 311 309 310 310 310 310 310 309 312 311 311 311 311 311 311 311 311 311 311 310 310 310 311 311 310 311 310 310 310 311 313 314 313 314 314
312 314 315 314 312 315 313 309 309 309 308 309 310 309 310 310 310 310 312 312 311 310 311 311 312 312 312 311 311 309 310 309 310 311 311 310 306 309 310 312 313 314 314 314 314
312 315 315 314 313 314 312 309 310 309 308 310 309 309 310 310 311 310 312 312 310 310 310 311 311 312 311 310 310 310 311 310 310 308 307 306 304 307 306 308 309 312 313 314 313
315 315 314 313 314 314 309 312 311 310 310 308 308 310 309 310 309 310 312 311 310 310 310 311 310 310 311 311 309 310 309 310 310 310 308 310 306 305 308 310 309 310 312 311 312
313 314 313 313 314 312 308 312 311 310 309 308 308 311 310 310 310 309 311 310 311 309 308 309 309 310 311 309 310 309 309 309 308 308 307 306 305 305 309 309 309 309 311 312 312
315 315 314 313 313 311 310 312 310 309 308 308 307 310 309 309 309 308 308 308 309 309 309 309 310 309 309 309 309 309 308 309 309 308 308 306 307 306 309 309 308 308 311 311 311
313 312 313 312 312 309 312 310 308 306 309 308 308 309 309 309 310 308 307 308 307 308 309 309 310 308 308 309 309 308 307 308 308 311 308 306 308 309 308 308 311 312 312 311 311
313 313 312 312 310 309 311 310 307 307 309 309 309 309 308 309 309 308 308 309 308 307 309 308 310 308 308 309 309 309 309 309 307 298 307 306 306 307 307 306 309 311 311 312 312
312 311 311 312 309 311 309 308 308 308 309 308 309 309 308 308 309 307 308 308 308 307 308 308 310 308 308 308 308 309 307 309 307 304 304 306 307 306 307 306 305 309 310 311 311
310 306 308 311 310 310 309 308 308 312 309 309 309 309 308 309 307 307 308 308 308 307 307 309 310 309 308 308 309 308 308 308 309 307 307 307 307 304 307 307 305 306 311 311 310
301 303 303 312 310 309 308 307 308 312 312 312 309 309 308 309 309 308 308 308 309 307 308 309 308 309 308 307 307 308 308 308 310 309 308 309 306 308 307 306 306 307 311 311 310
300 299 303 310 308 309 307 308 310 313 312 313 312 310 308 309 308 308 307 309 307 307 308 309 309 309 310 308 308 309 308 308 308 306 307 307 306 306 307 307 308 309 311 310 309
300 303 302 304 304 308 308 308 309 312 312 313 311 310 309 309 309 310 311 310 310 308 308 310 310 310 309 308 307 309 308 307 308 308 307 307 307 308 307 308 309 310 311 310 309
300 300 300 305 302 307 307 307 309 311 311 312 312 311 310 309 310 310 311 310 310 309 308 309 308 308 310 311 309 308 309 308 308 309 309 309 307 307 307 308 309 310 310 310 308
299 299 300 300 300 304 308 307 309 309 311 312 311 311 311 310 309 310 310 310 310 309 308 308 304 308 309 310 310 309 308 309 309 308 308 305 306 306 309 309 310 310 310 309 309
298 299 301 301 302 304 304 306 308 308 305 307 311 311 311 311 310 309 310 309 309 309 309 309 307 306 308 308 307 308 308 308 308 308 308 308 308 306 306 307 309 310 310 310 309
Wind_Speed
23 20 27 33 32 31 24 23 22 17 19 21 22 19 18 24 36 26 24 16 13 12 15 13 12 20 9 9 8 3 3 4 5 3 4 12 5 7 8 12 6 5 6 11 25
25 22 27 28 29 29 24 21 20 16 19 16 28 24 24 23 30 36 32 17 15 12 15 14 13 16 12 6 5 3 4 9 6 5 6 10 14 12 6 12 6 13 15 21 24
25 23 25 27 34 31 28 22 20 19 17 15 19 25 20 21 19 34 42 26 23 11 9 16 16 12 5 6 7 5 5 5 1 4 25 18 8 12 13 3 11 25 29 23 25
25 23 22 29 32 33 31 25 22 20 18 15 16 20 24 16 7 10 36 43 28 22 7 12 16 10 3 3 7 3 9 3 5 3 15 14 12 8 13 5 13 18 21 22 25
26 24 21 28 28 31 30 28 24 21 20 19 16 13 18 12 9 5 19 32 38 27 14 13 15 11 5 3 13 5 4 4 5 4 13 16 9 7 9 11 16 21 21 20 22
25 25 24 26 26 28 31 28 27 26 24 21 19 18 17 6 7 0 23 25 32 31 25 16 17 13 8 13 14 7 9 6 6 6 3 8 4 7 12 15 15 21 22 18 20
26 27 26 26 25 26 24 26 27 25 25 23 22 21 21 18 3 10 18 23 21 26 23 23 20 14 3 5 25 21 5 0 6 7 3 9 1 6 14 20 20 21 18 16 17
25 29 29 28 27 25 24 25 24 23 22 21 21 21 8 13 13 7 15 16 19 24 21 19 27 14 5 7 7 7 6 4 4 9 3 5 6 12 16 23 20 20 20 20 21
30 30 29 28 27 27 25 25 22 21 21 21 24 14 7 8 21 24 11 18 31 31 19 21 21 8 7 4 1 4 5 5 3 11 3 4 5 4 23 22 19 18 18 19 21
34 29 31 32 30 28 26 25 23 22 21 20 17 8 12 14 22 21 17 16 23 22 17 16 12 5 3 4 12 4 4 4 6 7 4 4 5 4 14 18 17 15 16 19 25
34 37 34 31 32 33 33 33 25 12 31 11 20 4 1 17 16 20 22 20 19 22 7 11 5 18 9 6 6 4 6 8 2 4 5 8 6 10 11 13 15 16 16 16 17
31 40 37 36 37 36 37 29 32 13 11 10 6 10 12 18 9 18 27 16 13 7 8 5 17 13 9 8 10 5 5 5 2 1 4 2 10 9 10 15 22 21 19 17 20
37 44 46 42 40 39 44 23 14 25 9 9 12 30 10 15 6 26 31 11 8 8 11 8 5 10 13 6 12 6 6 6 6 3 1 3 7 6 9 18 18 24 21 18 19
37 46 48 45 43 45 46 29 23 17 4 6 9 12 16 11 4 24 36 11 6 15 9 5 5 16 8 12 8 7 4 8 11 5 4 4 5 5 7 9 10 23 23 19 14
39 53 50 51 39 49 48 22 18 20 5 12 8 12 21 11 16 16 33 8 9 8 7 5 8 9 7 15 8 5 6 7 5 4 5 2 3 8 2 4 8 17 17 15 17
39 59 58 51 35 45 45 20 12 4 6 8 11 10 13 8 5 14 19 8 6 5 5 3 2 4 6 2 6 8 7 8 5 4 0 6 6 5 4 6 4 6 17 17 15
44 55 58 49 38 49 34 22 4 6 6 8 7 12 15 7 5 5 11 5 7 9 7 2 2 2 3 7 4 6 6 2 2 1 6 1 4 9 5 4 8 14 20 16 14
53 55 56 42 40 49 36 9 5 7 9 5 8 17 12 10 2 8 9 8 7 3 6 6 3 7 4 6 8 6 7 6 7 4 4 2 7 6 4 5 20 22 19 17 17
53 55 47 40 43 50 33 13 9 7 7 8 11 19 5 8 8 6 13 18 8 8 7 6 3 2 2 1 8 6 4 5 7 3 4 4 5 6 3 5 16 24 24 22 19
46 31 42 46 51 48 18 15 5 8 8 14 7 7 7 18 6 9 16 13 11 9 2 4 5 3 2 1 3 4 8 3 2 4 3 4 4 5 8 11 8 11 23 22 20
29 14 22 55 55 37 19 13 12 1 20 7 7 6 8 14 7 11 16 4 16 9 5 4 4 1 2 6 8 3 4 2 5 5 5 3 6 7 8 13 15 16 26 26 22
9 4 12 54 13 13 14 9 4 4 5 3 5 5 14 13 6 11 13 7 26 15 9 2 5 4 5 3 3 2 6 5 5 6 2 3 5 2 2 9 23 25 28 22 19
4 4 14 38 10 16 7 6 1 3 4 3 3 3 5 11 5 5 7 1 10 13 13 7 1 4 4 2 2 5 4 4 5 4 5 5 6 3 2 7 17 26 27 24 22
4 2 3 6 4 15 18 17 10 2 3 4 4 4 6 8 3 8 4 1 4 8 11 13 4 7 9 7 7 6 7 6 5 3 4 6 4 4 6 8 14 24 28 27 25
3 2 1 5 1 12 17 14 7 6 1 4 2 5 7 5 4 6 4 2 5 3 6 6 7 5 3 1 3 6 11 12 8 19 8 18 10 7 10 10 21 27 27 27 27
4 2 3 3 7 7 16 14 20 5 6 3 4 6 2 6 7 7 8 4 5 2 4 2 2 4 1 3 3 1 9 17 20 19 13 4 7 7 16 15 21 28 32 32 32
5 5 5 2 2 3 3 6 12 9 2 5 7 4 4 4 8 9 8 13 12 9 7 8 6 4 6 4 3 5 13 15 17 14 22 14 20 7 5 15 25 31 34 36 36
Wind_Direction
195 201 194 193 195 199 190 193 210 212 200 205 197 207 212 212 205 202 188 183 156 167 192 183 182 201 246 263 243 200 82 214 242 202 206 160 125 80 103 117 96 94 138 176 164
194 192 197 196 200 200 199 196 192 187 200 197 201 202 208 208 208 213 192 183 157 129 187 171 163 157 189 227 238 179 141 215 211 210 212 168 147 138 128 125 97 99 133 150 165
195 195 194 195 195 199 198 197 189 176 181 184 203 186 187 200 202 224 207 197 187 146 137 184 170 182 177 236 211 207 170 253 253 325 169 161 150 166 137 185 183 148 151 162 170
193 192 190 195 191 199 197 201 190 182 174 168 158 185 183 174 186 260 218 208 198 185 178 205 176 147 131 220 224 302 238 272 236 181 161 159 159 171 166 182 201 187 178 175 179
194 189 183 192 193 195 196 202 193 189 181 175 170 167 168 189 234 276 205 206 194 210 204 207 172 151 171 273 268 224 226 181 242 164 177 151 161 173 153 135 148 175 180 185 183
193 189 180 194 193 193 198 199 199 197 192 188 183 180 162 205 170 108 188 178 194 201 205 218 192 170 191 229 213 257 222 183 211 174 152 140 142 169 180 157 152 165 178 190 189
193 191 181 187 192 190 193 196 196 203 197 193 185 186 186 202 216 197 177 186 188 193 203 213 192 186 191 254 216 239 121 246 189 184 178 125 31 204 184 182 157 173 183 191 194
195 193 187 180 192 187 190 188 189 194 181 180 178 179 205 228 216 227 195 204 195 199 208 204 198 207 242 273 163 155 115 167 244 164 211 171 235 236 182 177 179 183 187 196 204
202 194 187 181 192 186 188 182 180 174 169 169 168 164 237 211 213 227 214 188 186 197 192 196 206 201 202 157 76 184 185 164 192 189 154 164 223 231 181 188 188 195 201 207 211
206 201 189 184 184 182 180 174 162 158 159 152 169 166 224 204 219 219 213 186 175 168 174 179 177 170 173 153 204 174 182 170 168 206 181 185 235 191 172 180 197 209 217 223 216
205 197 191 184 179 183 170 154 143 165 168 182 180 185 296 186 203 203 193 167 172 165 176 187 162 203 192 147 232 200 203 182 166 163 136 201 224 221 202 194 195 208 214 209 213
202 199 194 184 182 183 177 167 170 178 166 162 198 152 151 164 159 187 174 164 164 172 154 171 213 183 171 189 232 210 215 199 4 102 135 187 250 245 216 213 209 209 210 215 223
204 196 193 182 183 182 185 171 150 161 146 209 183 196 168 181 183 174 178 184 155 176 187 183 203 157 177 193 215 195 187 199 164 166 85 98 291 235 239 229 216 222 218 219 228
200 191 183 179 183 182 186 157 159 157 130 179 187 190 189 166 186 180 181 180 173 193 176 190 207 184 171 198 168 203 199 158 141 126 196 146 261 281 236 223 210 220 211 194 178
201 187 180 183 177 181 172 147 172 194 150 172 172 172 175 175 143 185 187 213 183 177 162 189 173 170 186 197 166 190 140 149 136 107 102 222 105 269 111 183 207 199 194 184 181
205 189 182 181 184 183 174 174 147 122 230 175 149 165 146 172 181 145 177 212 185 121 60 151 158 142 181 100 149 136 91 44 49 82 131 222 155 275 212 193 184 160 168 165 176
186 181 179 175 174 173 171 163 118 195 171 169 180 166 156 147 141 168 169 187 174 149 148 92 71 281 155 85 28 113 109 56 27 5 221 332 160 242 252 179 187 160 156 160 175
186 190 176 173 176 165 166 157 179 197 178 135 148 149 169 132 187 171 141 194 246 169 129 151 201 180 184 168 174 167 151 145 174 183 220 12 221 250 226 201 160 157 154 156 160
177 180 165 165 169 168 156 186 191 176 177 130 123 154 146 176 135 139 181 197 211 197 154 150 181 63 65 22 156 206 171 154 102 17 79 213 280 301 122 86 137 148 154 156 164
165 158 156 160 170 170 169 192 193 171 127 134 148 186 159 173 134 178 175 198 207 186 164 181 107 23 323 35 354 187 153 103 19 131 234 267 266 230 204 187 169 163 162 166 168
137 126 148 164 168 171 194 186 189 135 143 143 150 154 169 173 157 175 186 222 198 181 135 125 95 271 132 205 173 159 183 160 121 143 165 163 252 222 213 195 186 179 178 174 171
97 122 133 164 158 193 196 161 228 134 95 126 131 128 176 165 140 187 188 203 185 159 167 121 113 138 209 277 271 320 196 153 170 203 215 157 263 219 310 209 177 180 183 180 178
57 75 125 162 169 182 155 200 112 147 143 132 123 139 131 162 149 166 166 30 171 165 164 175 119 92 16 346 307 221 223 176 108 84 194 144 256 326 344 115 170 168 177 179 178
52 78 68 155 80 173 172 192 191 73 108 114 120 99 113 161 158 173 130 43 94 156 162 144 142 159 182 192 141 198 190 185 139 133 171 223 192 227 207 171 161 170 179 178 178
77 49 53 172 157 175 173 182 151 169 52 120 45 163 149 140 104 150 118 110 33 136 107 129 183 156 13 17 184 166 182 180 193 220 176 234 192 218 203 191 181 176 175 176 180
98 123 73 58 130 134 185 195 187 143 150 182 134 180 76 147 181 171 125 160 175 16 120 76 222 120 44 356 58 65 215 192 207 224 231 108 251 193 204 185 178 184 182 184 188
123 140 127 73 66 105 153 194 197 142 43 86 145 117 121 134 97 111 139 155 155 155 161 149 137 128 227 153 70 328 216 196 213 215 210 215 230 167 179 185 187 189 196 197 195